Total_Precipitation_Accumulation
0.00 0.00 0.00 0.01 0.01 0.01 0.01 0.01 0.00 0.00 0.00 0.00 0.00 0.00 0.00 0.00 0.00 0.00 0.00 0.00 0.00 0.00 0.00 0.01 0.01 0.02 0.04 0.06 0.08 0.09 0.09 0.09 0.09 0.09 0.09 0.10 0.10 0.11 0.12 0.14 0.14 0.14 0.15
0.00 0.00 0.01 0.01 0.01 0.01 0.01 0.00 0.00 0.00 0.00 0.00 0.00 0.00 0.00 0.00 0.00 0.00 0.00 0.00 0.00 0.00 0.00 0.01 0.01 0.03 0.04 0.06 0.07 0.07 0.08 0.08 0.08 0.09 0.09 0.10 0.11 0.12 0.13 0.15 0.15 0.16 0.16
0.00 0.00 0.01 0.01 0.00 0.00 0.00 0.00 0.00 0.00 0.00 0.00 0.00 0.00 0.00 0.00 0.00 0.00 0.00 0.00 0.00 0.00 0.00 0.00 0.01 0.02 0.03 0.04 0.05 0.06 0.08 0.09 0.09 0.09 0.10 0.10 0.11 0.12 0.14 0.16 0.17 0.18 0.19
0.00 0.00 0.00 0.00 0.00 0.00 0.00 0.00 0.00 0.00 0.00 0.00 0.00 0.00 0.00 0.00 0.00 0.00 0.00 0.00 0.00 0.00 0.00 0.00 0.01 0.01 0.01 0.02 0.02 0.04 0.06 0.09 0.10 0.11 0.12 0.12 0.12 0.13 0.15 0.18 0.21 0.23 0.25
0.01 0.00 0.00 0.00 0.00 0.00 0.00 0.00 0.00 0.00 0.00 0.00 0.00 0.00 0.00 0.00 0.00 0.00 0.00 0.00 0.00 0.00 0.00 0.00 0.00 0.00 0.01 0.01 0.02 0.03 0.07 0.11 0.14 0.15 0.15 0.16 0.17 0.19 0.21 0.24 0.26 0.29 0.31
0.02 0.01 0.01 0.01 0.00 0.00 0.00 0.00 0.00 0.00 0.00 0.00 0.00 0.00 0.00 0.00 0.00 0.00 0.00 0.00 0.00 0.00 0.00 0.00 0.00 0.00 0.00 0.02 0.05 0.07 0.08 0.10 0.14 0.16 0.16 0.17 0.19 0.21 0.24 0.28 0.30 0.31 0.33
0.05 0.04 0.03 0.02 0.01 0.00 0.00 0.00 0.00 0.00 0.00 0.00 0.00 0.00 0.00 0.00 0.00 0.00 0.00 0.00 0.00 0.00 0.00 0.00 0.00 0.01 0.03 0.05 0.08 0.08 0.08 0.08 0.11 0.15 0.17 0.18 0.20 0.23 0.27 0.31 0.34 0.36 0.38
0.09 0.07 0.04 0.04 0.03 0.01 0.01 0.00 0.00 0.00 0.00 0.00 0.00 0.00 0.00 0.00 0.00 0.00 0.00 0.00 0.00 0.00 0.00 0.00 0.01 0.02 0.04 0.06 0.06 0.06 0.05 0.05 0.06 0.09 0.13 0.14 0.16 0.19 0.24 0.28 0.32 0.37 0.42
0.18 0.14 0.11 0.09 0.07 0.04 0.02 0.02 0.01 0.01 0.01 0.00 0.00 0.00 0.00 0.00 0.00 0.00 0.00 0.00 0.00 0.00 0.00 0.00 0.00 0.00 0.00 0.01 0.01 0.01 0.01 0.02 0.02 0.03 0.06 0.10 0.13 0.17 0.22 0.28 0.35 0.42 0.47
0.23 0.23 0.19 0.15 0.12 0.10 0.07 0.07 0.06 0.04 0.03 0.02 0.01 0.00 0.00 0.00 0.00 0.00 0.00 0.00 0.00 0.00 0.00 0.00 0.00 0.00 0.00 0.00 0.00 0.00 0.02 0.04 0.04 0.06 0.10 0.14 0.19 0.25 0.33 0.42 0.51 0.58 0.63
0.21 0.23 0.21 0.19 0.16 0.15 0.16 0.15 0.13 0.11 0.08 0.05 0.03 0.02 0.01 0.00 0.00 0.00 0.00 0.00 0.00 0.00 0.00 0.00 0.00 0.00 0.00 0.00 0.00 0.02 0.04 0.05 0.06 0.08 0.11 0.16 0.25 0.35 0.45 0.55 0.65 0.75 0.85
0.17 0.19 0.21 0.20 0.19 0.20 0.21 0.21 0.20 0.18 0.15 0.12 0.07 0.05 0.04 0.02 0.01 0.01 0.01 0.00 0.00 0.00 0.00 0.00 0.00 0.00 0.00 0.00 0.01 0.02 0.01 0.01 0.01 0.01 0.05 0.14 0.23 0.31 0.38 0.45 0.54 0.67 0.83
0.13 0.14 0.17 0.19 0.22 0.25 0.28 0.28 0.25 0.22 0.20 0.16 0.12 0.09 0.07 0.05 0.03 0.03 0.03 0.02 0.02 0.01 0.01 0.01 0.01 0.00 0.00 0.00 0.00 0.00 0.00 0.00 0.00 0.00 0.03 0.08 0.12 0.15 0.17 0.18 0.24 0.32 0.43
0.15 0.18 0.20 0.22 0.25 0.27 0.27 0.27 0.25 0.23 0.21 0.18 0.14 0.11 0.09 0.07 0.05 0.05 0.05 0.05 0.05 0.04 0.03 0.02 0.02 0.01 0.01 0.01 0.01 0.00 0.00 0.00 0.00 0.00 0.02 0.05 0.06 0.07 0.09 0.12 0.17 0.22 0.28
0.15 0.17 0.19 0.22 0.23 0.24 0.24 0.25 0.23 0.21 0.19 0.16 0.14 0.11 0.09 0.08 0.06 0.06 0.06 0.06 0.08 0.09 0.08 0.06 0.06 0.05 0.04 0.03 0.03 0.02 0.01 0.00 0.00 0.02 0.03 0.04 0.04 0.07 0.10 0.13 0.16 0.19 0.22
0.11 0.13 0.16 0.18 0.19 0.19 0.19 0.19 0.17 0.15 0.14 0.13 0.12 0.11 0.11 0.10 0.10 0.10 0.11 0.12 0.13 0.15 0.15 0.13 0.11 0.10 0.09 0.07 0.05 0.03 0.01 0.01 0.01 0.01 0.02 0.05 0.07 0.08 0.10 0.13 0.15 0.18 0.21
0.09 0.11 0.13 0.14 0.14 0.14 0.13 0.13 0.11 0.10 0.11 0.11 0.12 0.13 0.14 0.15 0.17 0.18 0.21 0.23 0.25 0.25 0.24 0.19 0.15 0.12 0.10 0.08 0.05 0.02 0.01 0.01 0.01 0.02 0.03 0.04 0.06 0.08 0.11 0.13 0.16 0.18 0.22
0.07 0.08 0.09 0.10 0.10 0.09 0.09 0.09 0.10 0.10 0.12 0.13 0.15 0.16 0.19 0.21 0.25 0.28 0.29 0.29 0.27 0.23 0.20 0.16 0.10 0.08 0.06 0.04 0.02 0.01 0.01 0.01 0.01 0.01 0.02 0.03 0.05 0.07 0.09 0.12 0.16 0.21 0.26
0.06 0.06 0.06 0.06 0.06 0.07 0.08 0.09 0.10 0.11 0.12 0.15 0.18 0.21 0.24 0.26 0.29 0.29 0.27 0.24 0.20 0.16 0.13 0.12 0.07 0.04 0.03 0.02 0.02 0.01 0.00 0.00 0.00 0.00 0.00 0.01 0.02 0.06 0.11 0.15 0.19 0.22 0.23
0.06 0.06 0.05 0.05 0.05 0.05 0.06 0.08 0.10 0.13 0.16 0.20 0.23 0.25 0.27 0.28 0.26 0.23 0.20 0.17 0.14 0.11 0.08 0.08 0.09 0.07 0.06 0.03 0.03 0.02 0.01 0.00 0.00 0.00 0.01 0.02 0.04 0.08 0.10 0.10 0.09 0.07 0.07
0.06 0.07 0.08 0.08 0.09 0.10 0.12 0.14 0.17 0.22 0.25 0.28 0.28 0.28 0.26 0.23 0.19 0.15 0.12 0.10 0.09 0.09 0.13 0.18 0.19 0.15 0.08 0.04 0.02 0.01 0.01 0.02 0.01 0.01 0.02 0.03 0.03 0.02 0.01 0.01 0.01 0.02 0.05
0.15 0.15 0.16 0.19 0.22 0.27 0.38 0.36 0.32 0.31 0.31 0.29 0.25 0.21 0.17 0.14 0.10 0.08 0.07 0.08 0.11 0.17 0.26 0.31 0.25 0.14 0.05 0.01 0.01 0.04 0.08 0.13 0.09 0.01 0.04 0.02 0.01 0.01 0.00 0.01 0.02 0.06 0.10
0.31 0.33 0.36 0.40 0.44 0.50 0.55 0.47 0.39 0.29 0.25 0.22 0.18 0.13 0.09 0.05 0.03 0.02 0.02 0.06 0.11 0.18 0.21 0.19 0.12 0.04 0.02 0.03 0.11 0.18 0.17 0.18 0.11 0.02 0.05 0.04 0.02 0.02 0.01 0.02 0.03 0.05 0.07
0.54 0.60 0.65 0.64 0.61 0.58 0.50 0.38 0.29 0.21 0.16 0.12 0.09 0.06 0.03 0.02 0.02 0.03 0.08 0.14 0.10 0.07 0.04 0.03 0.03 0.04 0.05 0.07 0.15 0.25 0.22 0.15 0.06 0.02 0.04 0.06 0.02 0.02 0.01 0.01 0.02 0.03 0.06
0.71 0.71 0.66 0.58 0.49 0.39 0.29 0.19 0.12 0.08 0.06 0.04 0.02 0.01 0.02 0.01 0.03 0.11 0.17 0.17 0.08 0.02 0.00 0.02 0.06 0.06 0.06 0.05 0.06 0.15 0.21 0.23 0.14 0.02 0.02 0.04 0.03 0.02 0.02 0.01 0.01 0.03 0.05
0.53 0.44 0.34 0.25 0.17 0.11 0.07 0.04 0.02 0.01 0.01 0.00 0.00 0.00 0.01 0.03 0.08 0.16 0.16 0.13 0.05 0.02 0.04 0.03 0.01 0.00 0.00 0.00 0.02 0.09 0.27 0.49 0.36 0.17 0.01 0.08 0.12 0.15 0.22 0.03 0.01 0.01 0.02